Location: Unspecified
(0.0000°N, 0.0000°E)
Time: 05:07:23
(UTC+00:00)

Hubble Space Telescope - Visible Passes

Search period start: 17 October 2019 00:00
Search period end: 27 October 2019 00:00
Orbit: 536 x 540 km, 28.5° (Epoch: 16 October)

Date Brightness Start Highest point End Pass type
(mag) Time Alt. Az. Time Alt. Az. Time Alt. Az.
17 Oct 0.8 18:37:33 10° NW 18:41:39 62° NNE 18:44:10 22° ESE visible
18 Oct 3.5 04:53:12 10° S 04:55:08 13° SSE 04:57:05 10° SE visible
18 Oct 0.7 18:26:57 10° WNW 18:31:05 89° S 18:35:02 11° ESE visible
18 Oct 3.9 20:09:52 10° WSW 20:10:26 12° WSW 20:10:26 12° WSW visible
19 Oct 3.3 04:41:50 10° SSW 04:44:38 18° SSE 04:47:27 10° ESE visible
19 Oct 1.2 18:16:25 10° WNW 18:20:31 62° SSW 18:24:37 10° SE visible
19 Oct 3.8 20:00:35 10° SW 20:01:19 11° SW 20:01:19 11° SW visible
20 Oct 2.8 04:30:45 10° SSW 04:34:07 24° SSE 04:37:28 10° E visible
20 Oct 2.0 18:06:01 10° WNW 18:09:57 42° SSW 18:13:54 10° SE visible
21 Oct 2.3 04:21:05 17° SSW 04:23:34 33° SSE 04:27:17 10° E visible
22 Oct 1.6 04:11:56 37° SSW 04:13:01 46° SSE 04:16:59 10° ENE visible
23 Oct 1.1 04:02:49 63° ESE 04:02:49 63° ESE 04:06:33 10° ENE visible
24 Oct 2.2 03:53:40 33° NE 03:53:40 33° NE 03:56:00 10° ENE visible
25 Oct 3.2 03:44:28 16° NE 03:44:28 16° NE 03:45:21 10° NE visible
